TimeCDT,TemperatureF,Dew PointF,Humidity,Sea Level PressureIn,VisibilityMPH,Wind Direction,Wind SpeedMPH,Gust SpeedMPH,PrecipitationIn,Events,Conditions,WindDirDegrees,DateUTC
12:53 AM,75.0,72.0,90,29.98,9.0,SE,9.2,-,N/A,,Overcast,140,2013-05-31 05:53:00
1:53 AM,75.0,72.0,90,29.96,10.0,SSE,10.4,-,N/A,,Overcast,150,2013-05-31 06:53:00
2:53 AM,73.9,72.0,93,29.96,4.0,SSE,8.1,-,0.00,,Overcast,160,2013-05-31 07:53:00
3:03 AM,73.4,71.6,94,29.97,4.0,SSE,9.2,-,0.01,Rain,Light Rain,160,2013-05-31 08:03:00
3:53 AM,73.9,73.0,97,29.94,10.0,SSE,9.2,-,0.01,,Overcast,160,2013-05-31 08:53:00
4:53 AM,73.9,73.0,97,29.96,10.0,SSE,6.9,-,N/A,,Overcast,150,2013-05-31 09:53:00
4:58 AM,73.4,73.4,100,29.97,10.0,SSE,5.8,-,N/A,,Overcast,160,2013-05-31 09:58:00
5:09 AM,73.4,73.4,100,29.98,10.0,SSE,4.6,-,N/A,,Overcast,160,2013-05-31 10:09:00
5:53 AM,73.9,73.0,97,29.98,10.0,SSE,6.9,-,N/A,,Overcast,150,2013-05-31 10:53:00
6:05 AM,73.4,71.6,94,30.00,10.0,SSE,4.6,-,N/A,,Mostly Cloudy,150,2013-05-31 11:05:00
6:23 AM,73.4,73.4,100,30.01,10.0,SSE,3.5,-,N/A,,Mostly Cloudy,150,2013-05-31 11:23:00
6:53 AM,75.0,73.0,94,30.00,10.0,SSE,4.6,-,N/A,,Overcast,160,2013-05-31 11:53:00
7:03 AM,75.2,73.4,94,30.02,10.0,SSE,6.9,-,N/A,,Mostly Cloudy,160,2013-05-31 12:03:00
7:25 AM,75.2,73.4,94,30.02,10.0,SE,5.8,-,N/A,,Mostly Cloudy,140,2013-05-31 12:25:00
7:53 AM,75.9,73.0,91,30.01,10.0,SE,5.8,-,N/A,,Overcast,140,2013-05-31 12:53:00
8:15 AM,77.0,73.4,89,30.03,10.0,SSE,6.9,-,N/A,,Overcast,150,2013-05-31 13:15:00
8:53 AM,79.0,73.0,82,30.01,10.0,South,11.5,-,N/A,,Overcast,170,2013-05-31 13:53:00
9:18 AM,78.8,73.4,83,30.02,10.0,SSE,10.4,-,N/A,,Overcast,160,2013-05-31 14:18:00
9:26 AM,80.6,73.4,79,30.02,10.0,South,8.1,-,N/A,,Overcast,180,2013-05-31 14:26:00
9:53 AM,80.1,72.0,76,30.00,10.0,SSE,11.5,-,N/A,,Mostly Cloudy,160,2013-05-31 14:53:00
10:04 AM,80.6,71.6,74,30.01,10.0,South,8.1,-,N/A,,Mostly Cloudy,180,2013-05-31 15:04:00
10:12 AM,82.4,73.4,74,30.01,10.0,SSE,8.1,-,N/A,,Mostly Cloudy,160,2013-05-31 15:12:00
10:28 AM,82.4,71.6,70,30.01,10.0,SSE,11.5,-,N/A,,Overcast,160,2013-05-31 15:28:00
10:53 AM,82.0,72.0,71,29.99,10.0,South,12.7,16.1,N/A,,Overcast,170,2013-05-31 15:53:00
11:53 AM,82.0,73.9,76,29.99,10.0,South,5.8,-,0.00,,Overcast,190,2013-05-31 16:53:00
12:53 PM,86.0,73.0,65,29.98,10.0,South,10.4,-,0.00,,Mostly Cloudy,190,2013-05-31 17:53:00
1:53 PM,88.0,72.0,59,29.97,10.0,SSE,8.1,16.1,N/A,,Mostly Cloudy,150,2013-05-31 18:53:00
2:53 PM,88.0,72.0,59,29.95,10.0,South,12.7,-,N/A,,Mostly Cloudy,170,2013-05-31 19:53:00
3:53 PM,86.0,72.0,63,29.94,10.0,South,12.7,19.6,N/A,,Overcast,180,2013-05-31 20:53:00
4:53 PM,86.0,73.0,65,29.93,10.0,South,9.2,-,N/A,,Mostly Cloudy,170,2013-05-31 21:53:00
5:53 PM,84.0,73.0,69,29.94,10.0,South,13.8,19.6,N/A,,Scattered Clouds,170,2013-05-31 22:53:00
6:53 PM,82.9,73.0,72,29.94,10.0,South,10.4,-,N/A,,Clear,180,2013-05-31 23:53:00
7:53 PM,80.1,73.0,79,29.94,10.0,South,9.2,-,N/A,,Partly Cloudy,170,2013-06-01 00:53:00
8:42 PM,78.8,71.6,78,29.97,10.0,SSE,12.7,18.4,N/A,,Mostly Cloudy,160,2013-06-01 01:42:00
8:53 PM,78.1,72.0,81,29.95,10.0,SSE,11.5,-,N/A,,Mostly Cloudy,150,2013-06-01 01:53:00
9:53 PM,77.0,73.0,88,29.95,10.0,SSE,9.2,-,N/A,,Overcast,150,2013-06-01 02:53:00
10:08 PM,77.0,71.6,83,29.97,10.0,SSE,9.2,-,N/A,,Overcast,150,2013-06-01 03:08:00
10:45 PM,77.0,71.6,83,29.96,10.0,SSE,13.8,20.7,N/A,,Overcast,160,2013-06-01 03:45:00
10:53 PM,75.9,72.0,87,29.94,10.0,SSE,12.7,20.7,N/A,,Mostly Cloudy,150,2013-06-01 03:53:00
11:53 PM,75.9,72.0,87,29.96,10.0,SSE,8.1,-,N/A,,Overcast,160,2013-06-01 04:53:00